Date String (YYYY-MM-DD hh:mm:ss) UTC,Instrument flags,Ambient pressure (hPa),Sample flow (lpm),Bypass flow (lpm),Sample temperature (°C),Ambient temperature (°C),ASC tube jacket temperature (°C),LED temperature (°C),Box temperature (°C),Sample RH (%),Span deviation,Mass concentration (μg/m³),Mass concentration (μg/m³),Mass concentration (μg/m³)
DateTimeUTC,F1_M11,P_M11,Q1_M11,Q2_M11,T1_M11,T2_M11,T3_M11,T4_M11,T5_M11,U1_M11,ZSPAN_M11,X0_M11,X2_M11,X1_M11
2021-12-28 12:00:00,,0807.0,5.01,0.00,21.7,21.9,00.0,30.8,23.5,11.7,0000.0,0010.06,0001.93,0000.70
2021-12-28 12:01:00,,0807.1,4.99,0.00,21.7,21.6,00.0,30.8,23.3,11.7,0000.0,0011.11,0002.02,0000.70
2021-12-28 12:02:00,,0807.0,5.01,0.00,21.6,21.3,00.0,30.8,23.2,11.7,0000.0,0011.44,0002.08,0000.69
2021-12-28 12:03:00,,0807.0,4.99,0.00,21.6,21.1,00.0,30.8,23.1,11.7,0000.0,0010.31,0002.09,0000.68
2021-12-28 12:04:00,,0807.0,5.00,0.00,21.5,21.0,00.0,30.8,23.0,11.7,0000.0,0010.08,0002.06,0000.68
2021-12-28 12:05:00,,0807.0,4.99,0.00,21.4,20.8,00.0,30.7,22.9,11.7,0000.0,0010.22,0002.05,0000.68
2021-12-28 12:06:00,,0807.0,5.00,0.00,21.4,20.6,00.0,30.7,22.8,11.7,0000.0,0010.17,0002.09,0000.68
2021-12-28 12:07:00,,0806.9,5.01,0.00,21.3,20.5,00.0,30.7,22.8,11.7,0000.0,0010.36,0002.17,0000.69
2021-12-28 12:08:00,,0806.9,5.02,0.00,21.3,20.4,00.0,30.6,22.7,11.7,0000.0,0011.14,0002.22,0000.69
2021-12-28 12:09:00,,0806.9,4.99,0.00,21.3,20.7,00.0,30.6,22.8,11.7,0000.0,0010.49,0002.30,0000.70
2021-12-28 12:10:00,,0807.0,5.01,0.00,21.4,21.6,00.0,30.6,23.2,11.6,0000.0,0009.93,0002.36,0000.70
2021-12-28 12:11:00,,0807.1,5.01,0.00,21.6,22.6,00.0,30.7,23.5,11.5,0000.0,0009.92,0002.39,0000.70
2021-12-28 12:12:00,,0807.1,4.99,0.00,21.7,22.6,00.0,30.7,23.7,11.4,0000.0,0009.46,0002.31,0000.70
2021-12-28 12:13:00,,0807.1,5.00,0.00,21.7,22.3,00.0,30.7,23.6,11.3,0000.0,0010.33,0002.26,0000.70
2021-12-28 12:14:00,,0807.1,4.99,0.00,21.7,22.0,00.0,30.7,23.4,11.2,0000.0,0010.27,0002.21,0000.69
2021-12-28 12:15:00,,0807.1,5.02,0.00,21.7,21.8,00.0,30.7,23.3,11.2,0000.0,0010.46,0002.16,0000.67
2021-12-28 12:16:00,,0807.1,5.00,0.00,21.6,21.5,00.0,30.7,23.2,11.2,0000.0,0010.56,0002.17,0000.67
2021-12-28 12:17:00,,0807.1,4.99,0.00,21.6,21.3,00.0,30.7,23.1,11.1,0000.0,0010.27,0002.11,0000.67
2021-12-28 12:18:00,,0807.1,5.00,0.00,21.5,21.1,00.0,30.7,23.1,11.1,0000.0,0010.42,0002.12,0000.65
2021-12-28 12:19:00,,0807.1,5.01,0.00,21.5,21.0,00.0,30.6,23.0,11.1,0000.0,0010.50,0002.12,0000.65
2021-12-28 12:20:00,,0807.1,4.99,0.00,21.4,20.9,00.0,30.6,22.9,11.1,0000.0,0010.80,0001.96,0000.63
2021-12-28 12:21:00,,0807.1,4.99,0.00,21.4,20.8,00.0,30.6,22.9,11.0,0000.0,0010.73,0001.89,0000.62
2021-12-28 12:22:00,,0807.1,5.01,0.00,21.4,20.7,00.0,30.6,22.8,10.9,0000.0,0010.87,0001.83,0000.59
2021-12-28 12:23:00,,0807.1,5.00,0.00,21.3,20.6,00.0,30.6,22.8,10.8,0000.0,0011.34,0001.87,0000.57
2021-12-28 12:24:00,,0807.1,5.00,0.00,21.3,20.6,00.0,30.5,22.8,10.6,0000.0,0009.79,0001.81,0000.56
2021-12-28 12:25:00,,0807.1,5.00,0.00,21.3,20.9,00.0,30.5,22.9,10.6,0000.0,0009.44,0001.75,0000.55
2021-12-28 12:26:00,,0807.0,4.99,0.00,21.4,21.8,00.0,30.6,23.2,10.4,0000.0,0009.07,0001.68,0000.53
2021-12-28 12:27:00,,0806.9,5.00,0.00,21.6,22.6,00.0,30.6,23.6,10.2,0000.0,0008.70,0001.62,0000.50
2021-12-28 12:28:00,,0806.9,5.00,0.00,21.7,22.6,00.0,30.6,23.6,10.1,0000.0,0008.54,0001.57,0000.48
2021-12-28 12:29:00,,0806.8,5.02,0.00,21.7,22.2,00.0,30.7,23.4,10.0,0000.0,0008.11,0001.46,0000.45
2021-12-28 12:30:00,,0806.8,4.99,0.00,21.6,21.8,00.0,30.6,23.2,10.0,0000.0,0008.03,0001.33,0000.42
2021-12-28 12:31:00,,0806.8,5.02,0.00,21.5,21.4,00.0,30.6,23.0,10.0,0000.0,0007.02,0001.26,0000.41
2021-12-28 12:32:00,,0806.8,4.99,0.00,21.4,21.1,00.0,30.6,22.8,10.1,0000.0,0007.32,0001.19,0000.39
2021-12-28 12:33:00,,0806.8,5.00,0.00,21.3,20.8,00.0,30.6,22.7,10.1,0000.0,0007.06,0001.10,0000.37
2021-12-28 12:34:00,,0806.8,5.01,0.00,21.3,20.6,00.0,30.5,22.7,10.2,0000.0,0005.59,0001.03,0000.36
2021-12-28 12:35:00,,0806.9,4.99,0.00,21.2,20.5,00.0,30.5,22.6,10.2,0000.0,0006.41,0001.01,0000.35
2021-12-28 12:36:00,,0807.0,5.00,0.00,21.1,20.5,00.0,30.5,22.6,10.2,0000.0,0007.48,0001.01,0000.33
2021-12-28 12:37:00,,0807.2,5.00,0.00,21.2,21.3,00.0,30.5,22.9,10.2,0000.0,0007.48,0000.98,0000.33
2021-12-28 12:38:00,,0807.2,4.99,0.00,21.4,22.2,00.0,30.5,23.3,10.1,0000.0,0007.61,0000.96,0000.32
2021-12-28 12:39:00,,0807.3,5.01,0.00,21.6,22.9,00.0,30.6,23.6,10.0,0000.0,0007.66,0000.93,0000.32
2021-12-28 12:40:00,,0807.4,5.00,0.00,21.7,22.6,00.0,30.6,23.6,09.9,0000.0,0007.56,0000.91,0000.32
2021-12-28 12:41:00,,0807.3,4.99,0.00,21.7,22.2,00.0,30.6,23.5,09.9,0000.0,0006.46,0000.88,0000.32
2021-12-28 12:42:00,,0807.2,5.00,0.00,21.6,21.9,00.0,30.6,23.3,09.9,0000.0,0007.05,0000.91,0000.32
2021-12-28 12:43:00,,0807.2,5.01,0.00,21.6,21.7,00.0,30.6,23.2,09.8,0000.0,0006.80,0000.92,0000.32
2021-12-28 12:44:00,,0807.1,5.00,0.00,21.5,21.4,00.0,30.6,23.0,09.8,0000.0,0007.40,0000.99,0000.32
2021-12-28 12:45:00,,0807.2,5.00,0.00,21.4,21.1,00.0,30.6,22.9,09.8,0000.0,0007.53,0000.98,0000.32
2021-12-28 12:46:00,,0807.3,5.01,0.00,21.4,20.9,00.0,30.6,22.9,09.8,0000.0,0006.64,0000.91,0000.32
2021-12-28 12:47:00,,0807.3,4.99,0.00,21.3,20.7,00.0,30.5,22.8,09.8,0000.0,0005.45,0000.89,0000.32
2021-12-28 12:48:00,,0807.3,5.01,0.00,21.3,20.5,00.0,30.5,22.7,09.8,0000.0,0007.07,0000.91,0000.31
2021-12-28 12:49:00,,0807.4,5.00,0.00,21.2,20.4,00.0,30.5,22.6,09.9,0000.0,0007.38,0000.89,0000.31
2021-12-28 12:50:00,,0807.3,4.99,0.00,21.2,20.4,00.0,30.5,22.6,09.9,0000.0,0007.44,0000.91,0000.31
2021-12-28 12:51:00,,0807.3,5.01,0.00,21.2,21.0,00.0,30.5,22.8,09.8,0000.0,0007.59,0000.91,0000.32
2021-12-28 12:52:00,,0807.3,5.01,0.00,21.4,22.0,00.0,30.5,23.2,09.7,0000.0,0007.55,0000.88,0000.32
2021-12-28 12:53:00,,0807.2,5.00,0.00,21.6,22.6,00.0,30.6,23.5,09.5,0000.0,0006.62,0000.85,0000.32
2021-12-28 12:54:00,,0807.3,4.99,0.00,21.6,22.4,00.0,30.6,23.5,09.5,0000.0,0006.30,0000.81,0000.31
2021-12-28 12:55:00,,0807.3,5.01,0.00,21.6,22.1,00.0,30.6,23.4,09.6,0000.0,0005.21,0000.76,0000.30
2021-12-28 12:56:00,,0807.3,4.99,0.00,21.6,21.7,00.0,30.6,23.3,09.6,0000.0,0004.94,0000.74,0000.30
2021-12-28 12:57:00,,0807.3,5.00,0.00,21.6,21.5,00.0,30.6,23.2,09.6,0000.0,0005.53,0000.81,0000.30
2021-12-28 12:58:00,,0807.4,4.99,0.00,21.5,21.3,00.0,30.6,23.1,09.6,0000.0,0005.62,0000.82,0000.30
2021-12-28 12:59:00,,0807.4,5.01,0.00,21.5,21.0,00.0,30.6,23.0,09.6,0000.0,0003.89,0000.78,0000.31
